 day,  time,  air_temp(C),  RH(%),  ground_temp10cm(C),  ground_temp20cm(C),  ground_temp40cm(C),  precipitation(mm/h),  Solar_Radiation(MJ/m2h),  lack, 
 03/07/01, 01:00,  13.8,  87,  18.2,  18.2,  16.5,   0.0,  0.00, 
 03/07/01, 02:00,  14.9,  76,  18.0,  18.0,  16.5,   0.0,  0.00, 
 03/07/01, 03:00,  12.8,  87,  17.7,  17.9,  16.5,   0.0,  0.00, 
 03/07/01, 04:00,  12.7,  83,  17.4,  17.8,  16.5,   0.0,  0.00, 
 03/07/01, 05:00,  12.1,  84,  17.0,  17.7,  16.5,   0.0,  0.00, 
 03/07/01, 06:00,  14.5,  71,  16.8,  17.7,  16.5,   0.0,  0.17, 
 03/07/01, 07:00,  16.6,  77,  16.8,  17.5,  16.6,   0.0,  0.48, 
 03/07/01, 08:00,  16.3,  84,  16.8,  17.4,  16.6,   0.0,  0.63, 
 03/07/01, 09:00,  16.6,  80,  16.9,  17.3,  16.6,   0.0,  0.49, 
 03/07/01, 10:00,  17.0,  77,  17.1,  17.2,  16.6,   0.0,  0.61, 
 03/07/01, 11:00,  15.0,  99,  17.3,  17.3,  16.6,   0.0,  0.76, 
 03/07/01, 12:00,  14.5,  99,  17.4,  17.1,  16.6,   0.0,  0.54, 
 03/07/01, 13:00,  14.6,  99,  17.5,  17.1,  16.6,   0.0,  0.81, 
 03/07/01, 14:00,  15.0,  99,  17.7,  17.2,  16.5,   0.0,  0.61, 
 03/07/01, 15:00,  14.7,  99,  17.7,  17.1,  16.5,   1.0,  0.40, 
 03/07/01, 16:00,  13.9,  99,  17.7,  17.1,  16.5,   1.5,  0.24, 
 03/07/01, 17:00,  14.0,  99,  17.7,  17.2,  16.5,   2.0,  0.11, 
 03/07/01, 18:00,  13.7,  99,  17.6,  17.2,  16.5,   1.0,  0.17, 
 03/07/01, 19:00,  13.5,  99,  17.4,  17.1,  16.5,   1.0,  0.02, 
 03/07/01, 20:00,  12.9,  99,  17.3,  17.2,  16.5,   0.5,  0.00, 
 03/07/01, 21:00,  11.9,  99,  17.1,  17.1,  16.5,   2.0,  0.00, 
 03/07/01, 22:00,  11.0,  99,  16.8,  17.1,  16.5,   0.0,  0.00, 
 03/07/01, 23:00,  11.7,  99,  16.8,  17.0,  16.5,   0.0,  0.00, 
 03/07/02, 00:00,  11.2,  99,  16.6,  17.0,  16.5,   0.5,  0.00, 
 03/07/02, 01:00,  11.1,  99,  16.5,  16.9,  16.5,   0.0,  0.00, 
 03/07/02, 02:00,  10.9,  99,  16.3,  16.9,  16.5,   1.0,  0.00, 
 03/07/02, 03:00,  11.1,  99,  16.2,  16.8,  16.5,   0.0,  0.00, 
 03/07/02, 04:00,  11.1,  99,  16.0,  16.8,  16.5,   0.0,  0.00, 
 03/07/02, 05:00,  10.7,  99,  15.9,  16.7,  16.5,   0.0,  0.00, 
 03/07/02, 06:00,  10.9,  99,  15.7,  16.6,  16.5,   0.0,  0.03, 
 03/07/02, 07:00,  11.3,  99,  15.6,  16.5,  16.4,   0.0,  0.27, 
 03/07/02, 08:00,  11.5,  99,  15.6,  16.4,  16.4,   0.0,  0.55, 
 03/07/02, 09:00,  12.6,  99,  15.7,  16.4,  16.4,   0.0,  0.71, 
 03/07/02, 10:00,  14.7,  95,  16.0,  16.4,  16.4,   0.0,  2.29, 
 03/07/02, 11:00,  16.1,  84,  16.7,  16.4,  16.4,   0.5,  3.24, 
 03/07/02, 12:00,  16.8,  83,  17.7,  16.4,  16.4,   0.0,  2.73, 
 03/07/02, 13:00,  18.5,  79,  18.7,  16.4,  16.4,   0.0,  2.66, 
 03/07/02, 14:00,  18.2,  77,  19.1,  16.6,  16.3,   0.0,  2.73, 
 03/07/02, 15:00,  19.6,  72,  19.4,  16.8,  16.3,   0.0,  2.99, 
 03/07/02, 16:00,  18.7,  73,  19.6,  17.0,  16.3,   0.0,  2.35, 
 03/07/02, 17:00,  17.5,  78,  19.8,  17.2,  16.3,   0.0,  1.78, 
 03/07/02, 18:00,  16.1,  83,  19.8,  17.3,  16.3,   0.0,  1.02, 
 03/07/02, 19:00,  14.1,  94,  19.5,  17.5,  16.3,   0.0,  0.27, 
 03/07/02, 20:00,  12.5,  99,  19.1,  17.6,  16.3,   0.0,  0.00, 
 03/07/02, 21:00,  12.1,  99,  18.7,  17.7,  16.3,   0.0,  0.00, 
 03/07/02, 22:00,  12.4,  99,  18.4,  17.7,  16.3,   0.0,  0.00, 
 03/07/02, 23:00,  12.6,  97,  17.9,  17.6,  16.3,   0.0,  0.00, 
 03/07/03, 00:00,  13.4,  99,  17.7,  17.7,  16.3,   0.0,  0.00, 
 03/07/03, 01:00,  12.9,  99,  17.5,  17.6,  16.3,   0.0,  0.00, 
 03/07/03, 02:00,  13.8,  93,  17.2,  17.5,  16.3,   0.0,  0.00, 
 03/07/03, 03:00,  12.6,  99,  16.9,  17.3,  16.4,   0.0,  0.00, 
 03/07/03, 04:00,  12.5,  99,  16.8,  17.3,  16.4,   0.0,  0.00, 
 03/07/03, 05:00,  12.9,  99,  16.7,  17.2,  16.4,   0.0,  0.00, 
 03/07/03, 06:00,  12.4,  99,  16.5,  17.1,  16.4,   0.0,  0.08, 
 03/07/03, 07:00,  14.2,  91,  16.4,  17.0,  16.4,   0.0,  0.51, 
 03/07/03, 08:00,  15.2,  89,  16.5,  16.9,  16.4,   0.0,  0.86, 
 03/07/03, 09:00,  16.1,  86,  16.7,  16.8,  16.4,   0.0,  1.09, 
 03/07/03, 10:00,  17.0,  82,  16.8,  16.8,  16.4,   0.0,  1.58, 
 03/07/03, 11:00,  17.0,  85,  17.3,  16.8,  16.4,   0.0,  1.25, 
 03/07/03, 12:00,  17.9,  80,  17.7,  16.8,  16.4,   0.0,  2.27, 
 03/07/03, 13:00,  17.8,  74,  18.4,  16.8,  16.4,   0.0,  1.88, 
 03/07/03, 14:00,  16.5,  83,  18.7,  16.9,  16.4,   0.0,  0.79, 
 03/07/03, 15:00,  15.0,  96,  18.8,  17.1,  16.4,   0.0,  0.30, 
 03/07/03, 16:00,  14.9,  99,  18.7,  17.2,  16.4,   0.0,  0.45, 
 03/07/03, 17:00,  15.0,  94,  18.6,  17.3,  16.4,   0.5,  0.29, 
 03/07/03, 18:00,  14.7,  95,  18.4,  17.3,  16.4,   1.5,  0.05, 
 03/07/03, 19:00,  14.0,  99,  18.2,  17.4,  16.3,   2.0,  0.00, 
 03/07/03, 20:00,  13.9,  99,  18.0,  17.4,  16.4,   3.5,  0.00, 
 03/07/03, 21:00,  13.9,  99,  17.7,  17.5,  16.4,   5.0,  0.00, 
 03/07/03, 22:00,  14.9,  99,  17.4,  17.5,  16.4,   1.0,  0.00, 
 03/07/03, 23:00,  14.7,  99,  17.2,  17.3,  16.4,   3.5,  0.00, 
 03/07/04, 00:00,  15.0,  99,  17.0,  17.3,  16.4,   3.5,  0.00, 
 03/07/04, 01:00,  16.6,  99,  16.9,  17.2,  16.4,   0.0,  0.00, 
 03/07/04, 02:00,  16.9,  99,  16.8,  17.1,  16.5,   0.0,  0.00, 
 03/07/04, 03:00,  17.0,  99,  16.9,  17.2,  16.5,   0.0,  0.00, 
 03/07/04, 04:00,  16.8,  99,  16.8,  17.0,  16.5,   0.0,  0.00, 
 03/07/04, 05:00,  16.5,  99,  16.8,  17.0,  16.5,   0.5,  0.00, 
 03/07/04, 06:00,  16.2,  99,  16.8,  16.9,  16.5,   2.0,  0.01, 
 03/07/04, 07:00,  16.1,  99,  16.8,  16.9,  16.5,   0.0,  0.18, 
 03/07/04, 08:00,  15.4,  99,  16.8,  16.8,  16.5,   0.0,  0.58, 
 03/07/04, 09:00,  17.0,  93,  17.1,  16.8,  16.5,   0.0,  2.00, 
 03/07/04, 10:00,  16.4,  89,  17.5,  16.8,  16.5,   0.0,  1.33, 
 03/07/04, 11:00,  15.7,  90,  17.8,  16.8,  16.5,   0.5,  0.96, 
 03/07/04, 12:00,  16.7,  87,  18.0,  16.9,  16.5,   0.0,  1.27, 
 03/07/04, 13:00,  16.2,  89,  18.2,  16.9,  16.5,   0.0,  1.18, 
 03/07/04, 14:00,  15.4,  90,  18.4,  17.1,  16.5,   0.0,  0.82, 
 03/07/04, 15:00,  15.5,  93,  18.4,  17.2,  16.4,   0.0,  0.45, 
 03/07/04, 16:00,  15.1,  97,  18.4,  17.1,  16.4,   0.0,  0.15, 
 03/07/04, 17:00,  15.0,  92,  18.4,  17.3,  16.4,   0.0,  0.16, 
 03/07/04, 18:00,  14.6,  94,  18.2,  17.4,  16.4,   0.0,  0.10, 
 03/07/04, 19:00,  14.0,  97,  18.0,  17.3,  16.4,   0.0,  0.02, 
 03/07/04, 20:00,  13.8,  98,  17.9,  17.4,  16.4,   0.0,  0.00, 
 03/07/04, 21:00,  13.5,  95,  17.7,  17.4,  16.4,   0.0,  0.00, 
 03/07/04, 22:00,  13.3,  97,  17.5,  17.4,  16.4,   0.0,  0.00, 
 03/07/04, 23:00,  13.0,  96,  17.2,  17.2,  16.4,   0.0,  0.00, 
 03/07/05, 00:00,  12.6,  99,  17.2,  17.2,  16.4,   0.0,  0.00, 
 03/07/05, 01:00,  12.4,  99,  16.9,  17.2,  16.4,   0.0,  0.00, 
 03/07/05, 02:00,  12.4,  99,  16.8,  17.1,  16.5,   0.0,  0.00, 
 03/07/05, 03:00,  12.0,  99,  16.8,  17.0,  16.5,   0.0,  0.00, 
 03/07/05, 04:00,  11.9,  99,  16.6,  17.0,  16.5,   0.0,  0.00, 
 03/07/05, 05:00,  12.9,  78,  16.4,  16.9,  16.5,   0.0,  0.00, 
 03/07/05, 06:00,  14.0,  64,  16.2,  16.8,  16.5,   0.0,  0.13, 
 03/07/05, 07:00,  13.5,  71,  16.1,  16.8,  16.5,   0.0,  0.36, 
 03/07/05, 08:00,  14.7,  73,  16.1,  16.8,  16.4,   0.0,  1.15, 
 03/07/05, 09:00,  17.0,  72,  16.4,  16.7,  16.4,   0.0,  2.46, 
 03/07/05, 10:00,  17.6,  79,  17.0,  16.7,  16.4,   0.0,  2.38, 
 03/07/05, 11:00,  18.1,  74,  17.7,  16.6,  16.4,   0.0,  2.30, 
 03/07/05, 12:00,  19.9,  67,  18.4,  16.7,  16.4,   0.0,  2.64, 
 03/07/05, 13:00,  20.2,  57,  19.2,  16.8,  16.4,   0.0,  2.58, 
 03/07/05, 14:00,  21.3,  61,  19.8,  17.0,  16.4,   0.0,  2.31, 
 03/07/05, 15:00,  20.0,  73,  20.0,  17.1,  16.4,   0.0,  1.11, 
 03/07/05, 16:00,  19.1,  81,  20.1,  17.3,  16.4,   0.0,  0.86, 
 03/07/05, 17:00,  18.2,  78,  20.1,  17.5,  16.4,   0.0,  0.66, 
 03/07/05, 18:00,  17.2,  85,  20.0,  17.7,  16.4,   0.0,  0.24, 
 03/07/05, 19:00,  16.4,  87,  19.8,  17.7,  16.4,   0.0,  0.05, 
 03/07/05, 20:00,  16.4,  85,  19.6,  17.9,  16.4,   0.0,  0.00, 
 03/07/05, 21:00,  15.7,  90,  19.3,  18.0,  16.4,   0.0,  0.00, 
 03/07/05, 22:00,  16.4,  92,  18.9,  17.9,  16.4,   0.0,  0.00, 
 03/07/05, 23:00,  16.4,  95,  18.7,  17.9,  16.4,   0.0,  0.00, 
 03/07/06, 00:00,  16.8,  96,  18.5,  17.9,  16.4,   0.0,  0.00, 
 03/07/06, 01:00,  16.4,  99,  18.4,  17.8,  16.4,   0.0,  0.00, 
 03/07/06, 02:00,  16.2,  99,  18.4,  17.8,  16.4,   0.0,  0.00, 
 03/07/06, 03:00,  16.3,  99,  18.2,  17.8,  16.5,   1.0,  0.00, 
 03/07/06, 04:00,  16.2,  99,  18.0,  17.7,  16.5,   0.0,  0.00, 
 03/07/06, 05:00,  15.9,  99,  18.0,  17.7,  16.5,   0.5,  0.00, 
 03/07/06, 06:00,  16.1,  99,  17.8,  17.6,  16.5,   0.0,  0.00, 
 03/07/06, 07:00,  16.2,  99,  17.8,  17.6,  16.5,   0.5,  0.04, 
 03/07/06, 08:00,  16.8,  99,  17.7,  17.7,  16.5,   0.0,  0.34, 
 03/07/06, 09:00,  16.8,  99,  17.9,  17.6,  16.5,   0.0,  0.42, 
 03/07/06, 10:00,  17.3,  99,  18.0,  17.6,  16.5,   0.0,  0.88, 
 03/07/06, 11:00,  18.6,  99,  18.2,  17.6,  16.5,   0.0,  1.06, 
 03/07/06, 12:00,  18.4,  97,  18.4,  17.6,  16.6,   0.0,  1.02, 
 03/07/06, 13:00,  19.8,  92,  18.7,  17.6,  16.6,   0.0,  1.60, 
 03/07/06, 14:00,  19.7,  94,  19.2,  17.6,  16.6,   0.0,  1.01, 
 03/07/06, 15:00,  20.2,  93,  19.4,  17.7,  16.6,   0.0,  1.55, 
 03/07/06, 16:00,  20.4,  93,  19.7,  17.7,  16.6,   0.0,  1.06, 
 03/07/06, 17:00,  18.6,  99,  19.8,  17.9,  16.6,   0.5,  0.20, 
 03/07/06, 18:00,  17.8,  99,  19.8,  17.9,  16.6,   0.0,  0.07, 
 03/07/06, 19:00,  17.4,  99,  19.7,  18.0,  16.6,   0.0,  0.00, 
 03/07/06, 20:00,  17.0,  99,  19.5,  18.0,  16.6,   0.0,  0.00, 
 03/07/06, 21:00,  16.8,  99,  19.3,  18.2,  16.6,   0.0,  0.00, 
 03/07/06, 22:00,  16.4,  99,  19.1,  18.1,  16.6,   0.0,  0.00, 
 03/07/06, 23:00,  16.5,  90,  18.9,  18.1,  16.6,   0.0,  0.00, 
 03/07/06, 00:00,  15.8,  99,  18.7,  18.1,  16.6,   0.0,  0.00, 
 03/07/07, 01:00,  16.2,  98,  18.5,  18.1,  16.6,   0.0,  0.00, 
 03/07/07, 02:00,  15.8,  99,  18.4,  18.0,  16.7,   0.0,  0.00, 
 03/07/07, 03:00,  15.4,  99,  18.3,  18.0,  16.7,   0.5,  0.00, 
 03/07/07, 04:00,  15.4,  99,  18.1,  17.9,  16.7,   1.5,  0.00, 
 03/07/07, 05:00,  15.7,  99,  17.9,  17.9,  16.7,   1.0,  0.00, 
 03/07/07, 06:00,  15.6,  99,  17.8,  17.8,  16.7,   3.0,  0.00, 
 03/07/07, 07:00,  15.1,  99,  17.6,  17.8,  16.7,   1.5,  0.06, 
 03/07/07, 08:00,  15.8,  99,  17.6,  17.7,  16.7,   2.5,  0.14, 
 03/07/07, 09:00,  16.4,  99,  17.6,  17.7,  16.7,   5.0,  0.23, 
 03/07/07, 10:00,  16.4,  99,  17.5,  17.7,  16.8,   6.5,  0.18, 
 03/07/07, 11:00,  16.7,  99,  17.5,  17.6,  16.8,   3.0,  0.13, 
 03/07/07, 12:00,  17.0,  99,  17.5,  17.6,  16.8,   0.0,  0.29, 
 03/07/07, 13:00,  17.2,  99,  17.6,  17.5,  16.8,   0.5,  0.37, 
 03/07/07, 14:00,  17.3,  99,  17.7,  17.6,  16.8,   0.0,  0.34, 
 03/07/07, 15:00,  17.5,  99,  17.8,  17.5,  16.8,   0.0,  0.39, 
 03/07/07, 16:00,  17.4,  99,  17.9,  17.5,  16.9,   0.0,  0.36, 
 03/07/07, 17:00,  17.2,  99,  18.0,  17.5,  16.8,   0.0,  0.24, 
 03/07/07, 18:00,  17.0,  99,  18.0,  17.5,  16.8,   0.0,  0.05, 
 03/07/07, 19:00,  16.4,  99,  18.0,  17.5,  16.8,   0.0,  0.06, 
 03/07/07, 20:00,  15.6,  99,  17.9,  17.6,  16.8,   0.5,  0.00, 
 03/07/07, 21:00,  15.6,  99,  17.8,  17.6,  16.8,   0.0,  0.00, 
 03/07/07, 22:00,  15.1,  99,  17.7,  17.5,  16.8,   0.0,  0.00, 
 03/07/07, 23:00,  15.3,  99,  17.5,  17.4,  16.8,   0.0,  0.00, 
 03/07/08, 00:00,  14.7,  99,  17.4,  17.4,  16.8,   0.0,  0.00, 
 03/07/08, 01:00,  14.8,  99,  17.3,  17.5,  16.8,   0.0,  0.00, 
 03/07/08, 02:00,  14.3,  99,  17.2,  17.3,  16.8,   0.0,  0.00, 
 03/07/08, 03:00,  14.4,  99,  17.0,  17.4,  16.8,   0.0,  0.00, 
 03/07/08, 04:00,  14.7,  99,  16.8,  17.2,  16.8,   0.0,  0.00, 
 03/07/08, 05:00,  14.9,  99,  16.8,  17.3,  16.8,   0.0,  0.00, 
 03/07/08, 06:00,  15.1,  98,  16.7,  17.1,  16.8,   0.0,  0.00, 
 03/07/08, 07:00,  16.0,  96,  16.7,  17.2,  16.8,   0.0,  0.28, 
 03/07/08, 08:00,  16.5,  97,  16.7,  17.0,  16.8,   0.0,  0.52, 
 03/07/08, 09:00,  17.2,  92,  16.8,  17.0,  16.8,   0.0,  0.85, 
 03/07/08, 10:00,  16.8,  98,  17.2,  16.9,  16.8,   0.0,  0.87, 
 03/07/08, 11:00,  17.4,  98,  17.5,  17.0,  16.7,   0.5,  0.96, 
 03/07/08, 12:00,  17.9,  99,  17.7,  16.9,  16.7,   0.0,  1.16, 
 03/07/08, 13:00,  19.7,  87,  18.0,  17.0,  16.7,   0.0,  1.74, 
 03/07/08, 14:00,  20.1,  88,  18.4,  17.0,  16.7,   0.0,  1.75, 
 03/07/08, 15:00,  21.5,  82,  18.7,  17.1,  16.7,   0.0,  2.40, 
 03/07/08, 16:00,  21.0,  85,  19.1,  17.3,  16.7,   0.0,  1.43, 
 03/07/08, 17:00,  19.5,  90,  19.4,  17.4,  16.7,   0.0,  1.92, 
 03/07/08, 18:00,  18.1,  95,  19.6,  17.4,  16.7,   0.0,  1.00, 
 03/07/08, 19:00,  16.3,  99,  19.6,  17.6,  16.7,   0.0,  0.20, 
 03/07/08, 20:00,  14.8,  99,  19.4,  17.7,  16.7,   0.0,  0.00, 
 03/07/08, 21:00,  15.5,  99,  19.0,  17.8,  16.7,   0.0,  0.00, 
 03/07/08, 22:00,  14.4,  99,  18.6,  17.8,  16.7,   0.0,  0.00, 
 03/07/08, 23:00,  15.3,  99,  18.4,  17.8,  16.7,   0.0,  0.00, 
 03/07/09, 00:00,  14.8,  99,  18.1,  17.8,  16.7,   0.0,  0.00, 
 03/07/09, 01:00,  15.2,  97,  17.9,  17.8,  16.7,   0.0,  0.00, 
 03/07/09, 02:00,  15.3,  96,  17.7,  17.7,  16.7,   0.0,  0.00, 
 03/07/09, 03:00,  14.7,  99,  17.4,  17.7,  16.7,   0.0,  0.00, 
 03/07/09, 04:00,  14.6,  98,  17.3,  17.7,  16.7,   0.0,  0.00, 
 03/07/09, 05:00,  13.8,  99,  17.1,  17.6,  16.7,   0.0,  0.00, 
 03/07/09, 06:00,  15.8,  89,  16.8,  17.6,  16.7,   0.0,  0.15, 
 03/07/09, 07:00,  16.9,  91,  16.8,  17.4,  16.7,   0.0,  0.29, 
 03/07/09, 08:00,  17.9,  92,  16.9,  17.3,  16.8,   0.0,  0.69, 
 03/07/09, 09:00,  17.0,  99,  17.2,  17.2,  16.8,   0.0,  0.67, 
 03/07/09, 10:00,  16.3,  99,  17.5,  17.2,  16.8,   1.5,  0.30, 
 03/07/09, 11:00,  17.5,  99,  17.6,  17.2,  16.8,   1.5,  0.56, 
 03/07/09, 12:00,  16.9,  99,  17.7,  17.2,  16.8,   0.5,  0.36, 
 03/07/09, 13:00,  16.9,  99,  17.8,  17.2,  16.7,   2.5,  0.31, 
 03/07/09, 14:00,  17.1,  99,  17.8,  17.2,  16.7,   0.0,  0.49, 
 03/07/09, 15:00,  17.4,  99,  18.0,  17.2,  16.7,   0.0,  0.65, 
 03/07/09, 16:00,  18.2,  99,  18.1,  17.3,  16.7,   0.0,  0.77, 
 03/07/09, 17:00,  17.5,  99,  18.4,  17.3,  16.7,   0.0,  0.40, 
 03/07/09, 18:00,  17.0,  99,  18.4,  17.4,  16.7,   0.0,  0.16, 
 03/07/09, 19:00,  16.4,  99,  18.4,  17.5,  16.7,   0.5,  0.00, 
 03/07/09, 20:00,  16.1,  99,  18.3,  17.5,  16.7,   0.0,  0.00, 
 03/07/09, 21:00,  15.9,  99,  18.2,  17.6,  16.7,   0.0,  0.00, 
 03/07/09, 22:00,  16.2,  99,  18.1,  17.6,  16.7,   0.0,  0.00, 
 03/07/09, 23:00,  16.1,  99,  18.0,  17.6,  16.7,   0.5,  0.00, 
 03/07/10, 00:00,  16.0,  99,  17.8,  17.5,  16.7,   0.0,  0.00, 
 03/07/10, 01:00,  15.9,  99,  17.7,  17.5,  16.7,   0.0,  0.00, 
 03/07/10, 02:00,  16.5,  99,  17.7,  17.5,  16.7,   0.0,  0.00, 
 03/07/10, 03:00,  16.7,  99,  17.6,  17.5,  16.7,   0.0,  0.00, 
 03/07/10, 04:00,  16.8,  99,  17.5,  17.4,  16.8,   0.0,  0.00, 
 03/07/10, 05:00,  16.5,  99,  17.3,  17.4,  16.8,   0.0,  0.00, 
 03/07/10, 06:00,  16.7,  99,  17.3,  17.3,  16.8,   0.0,  0.01, 
 03/07/10, 07:00,  17.2,  99,  17.4,  17.3,  16.8,   0.0,  0.20, 
 03/07/10, 08:00,  17.2,  99,  17.4,  17.3,  16.8,   0.0,  0.34, 
 03/07/10, 09:00,  17.1,  99,  17.5,  17.2,  16.8,   4.0,  0.16, 
 03/07/10, 10:00,  17.3,  99,  17.5,  17.2,  16.8,   2.0,  0.19, 
 03/07/10, 11:00,  17.7,  99,  17.6,  17.2,  16.8,   1.0,  0.36, 
 03/07/10, 12:00,  18.4,  99,  17.7,  17.2,  16.8,   1.0,  0.62, 
 03/07/10, 13:00,  18.0,  99,  17.8,  17.2,  16.8,   1.5,  0.60, 
 03/07/10, 14:00,  18.4,  99,  18.0,  17.2,  16.8,   1.0,  0.48, 
 03/07/10, 15:00,  18.4,  99,  18.2,  17.3,  16.8,   0.0,  0.36, 
 03/07/10, 16:00,  18.3,  99,  18.3,  17.3,  16.8,   0.0,  0.29, 
 03/07/10, 17:00,  18.0,  99,  18.3,  17.4,  16.8,   0.5,  0.25, 
 03/07/10, 18:00,  17.9,  99,  18.3,  17.5,  16.8,   0.0,  0.17, 
 03/07/10, 19:00,  17.8,  99,  18.3,  17.4,  16.8,   0.5,  0.01, 
 03/07/10, 20:00,  17.6,  99,  18.3,  17.6,  16.8,   3.0,  0.00, 
 03/07/10, 21:00,  17.4,  99,  18.2,  17.6,  16.8,   0.0,  0.00, 
 03/07/10, 22:00,  17.9,  99,  18.0,  17.5,  16.8,   0.0,  0.00, 
 03/07/10, 23:00,  17.4,  99,  18.0,  17.6,  16.8,   0.5,  0.00, 
 03/07/11, 00:00,  17.6,  99,  17.9,  17.5,  16.8,   0.0,  0.00, 
 03/07/11, 01:00,  17.4,  99,  17.8,  17.5,  16.8,   1.0,  0.00, 
 03/07/11, 02:00,  17.4,  99,  17.7,  17.5,  16.8,   2.0,  0.00, 
 03/07/11, 03:00,  17.3,  99,  17.7,  17.5,  16.8,   1.0,  0.00, 
 03/07/11, 04:00,  16.9,  99,  17.7,  17.6,  16.8,   0.0,  0.00, 
 03/07/11, 05:00,  17.0,  99,  17.6,  17.5,  16.8,   0.0,  0.00, 
 03/07/11, 06:00,  17.1,  99,  17.6,  17.4,  16.8,   0.0,  0.12, 
 03/07/11, 07:00,  17.7,  99,  17.6,  17.4,  16.8,   0.5,  0.52, 
 03/07/11, 08:00,  18.5,  98,  17.7,  17.5,  16.8,   0.0,  0.65, 
 03/07/11, 09:00,  18.9,  99,  17.8,  17.4,  16.8,   0.0,  0.73, 
 03/07/11, 10:00,  19.4,  99,  18.2,  17.5,  16.8,   0.0,  1.28, 
 03/07/11, 11:00,  19.9,  97,  18.4,  17.5,  16.8,   0.0,  1.00, 
 03/07/11, 12:00,  18.4,  99,  18.7,  17.5,  16.8,   4.0,  0.47, 
 03/07/11, 13:00,  18.1,  99,  18.9,  17.6,  16.8,   1.5,  0.35, 
 03/07/11, 14:00,  18.1,  99,  19.0,  17.7,  16.8,   2.0,  0.29, 
 03/07/11, 15:00,  17.4,  99,  19.0,  17.7,  16.9,   1.5,  0.31, 
 03/07/11, 16:00,  17.4,  99,  19.0,  17.8,  16.9,   0.5,  0.32, 
 03/07/11, 17:00,  17.4,  99,  18.9,  18.0,  16.9,   0.5,  0.13, 
 03/07/11, 18:00,  17.3,  99,  18.8,  17.9,  16.9,   0.5,  0.09, 
 03/07/11, 19:00,  17.0,  99,  18.8,  17.9,  16.9,   2.5,  0.00, 
 03/07/11, 20:00,  16.3,  99,  18.6,  18.0,  16.9,   0.0,  0.00, 
 03/07/11, 21:00,  15.9,  99,  18.5,  18.0,  16.9,   0.0,  0.00, 
 03/07/11, 22:00,  16.3,  99,  18.4,  18.0,  16.9,   0.5,  0.00, 
 03/07/11, 23:00,  16.1,  99,  18.3,  18.0,  16.9,   1.5,  0.00, 
 03/07/12, 00:00,  16.3,  99,  18.1,  17.9,  17.0,   4.0,  0.00, 
 03/07/12, 01:00,  15.9,  99,  17.9,  17.9,  17.0,   0.5,  0.00, 
 03/07/12, 02:00,  16.1  99,  17.8,  17.9,  17.0,   0.0,  0.00, 
 03/07/12, 03:00,  16.3,  99,  17.7,  17.8,  17.0,   0.0,  0.00, 
 03/07/12, 04:00,  16.2,  99,  17.7,  17.8,  16.9,   0.0,  0.00, 
 03/07/12, 05:00,  16.1,  99,  17.6,  17.7,  17.0,   0.5,  0.00, 
 03/07/12, 06:00,  16.4,  99,  17.6,  17.7,  17.0,   0.0,  0.08, 
 03/07/12, 07:00,  17.0,  99,  17.6,  17.7,  17.1,   0.0,  0.25, 
 03/07/12, 08:00,  16.8,  99,  17.6,  17.6,  17.1,   0.0,  0.56, 
 03/07/12, 09:00,  18.1,  99,  17.8,  17.6,  17.1,   0.0,  1.39, 
 03/07/12, 10:00,  18.3,  99,  18.3,  17.7,  17.1,   0.0,  1.67, 
 03/07/12, 11:00,  19.8,  96,  18.7,  17.6,  17.1,   0.0,  1.64, 
 03/07/12, 12:00,  21.4,  88,  19.3,  17.7,  17.0,   0.0,  2.30, 
 03/07/12, 13:00,  22.2,  82,  20.1,  17.7,  17.0,   0.0,  2.84, 
 03/07/12, 14:00,  23.1,  80,  20.7,  17.8,  17.0,   0.0,  3.02, 
 03/07/12, 15:00,  23.0,  76,  21.0,  18.0,  17.0,   0.5,  2.55, 
 03/07/12, 16:00,  22.0,  86,  21.2,  18.2,  17.0,   0.0,  1.85, 
 03/07/12, 17:00,  20.5,  95,  21.4,  18.4,  17.0,   0.0,  0.90, 
 03/07/12, 18:00,  19.8,  97,  21.4,  18.5,  17.0,   0.0,  0.80, 
 03/07/12, 19:00,  17.7,  99,  21.3,  18.7,  17.0,   0.0,  0.12, 
 03/07/12, 20:00,  16.7,  99,  21.1,  18.8,  17.1,   0.0,  0.00, 
 03/07/12, 21:00,  16.7,  99,  20.8,  18.9,  17.1,   0.0,  0.00, 
 03/07/12, 22:00,  16.5,  99,  20.5,  19.0,  17.1,   0.0,  0.00, 
 03/07/12, 23:00,  16.6,  99,  20.2,  19.0,  17.1,   0.0,  0.00, 
 03/07/13, 00:00,  16.3,  99,  20.0,  19.0,  17.1,   0.0,  0.00, 
 03/07/13, 01:00,  16.1,  99,  19.8,  19.0,  17.2,   0.0,  0.00, 
 03/07/13, 02:00,  16.5,  99,  19.6,  18.9,  17.2,   0.0,  0.00, 
 03/07/13, 03:00,  16.0,  99,  19.4,  18.9,  17.2,   0.0,  0.00, 
 03/07/13, 04:00,  16.0,  99,  19.3,  18.8,  17.2,   0.0,  0.00, 
 03/07/13, 05:00,  15.8,  99,  19.0,  18.8,  17.2,   0.0,  0.00, 
 03/07/13, 06:00,  16.2,  99,  18.9,  18.7,  17.3,   0.0,  0.13, 
 03/07/13, 07:00,  15.9,  99,  18.8,  18.7,  17.3,   0.0,  0.20, 
 03/07/13, 08:00,  17.6,  99,  18.8,  18.6,  17.3,   0.0,  0.70, 
 03/07/13, 09:00,  18.2,  99,  18.9,  18.6,  17.3,   0.0,  1.31, 
 03/07/13, 10:00,  17.2,  99,  19.3,  18.5,  17.3,   0.0,  0.44, 
 03/07/13, 11:00,  18.7,  95,  19.4,  18.5,  17.3,   0.0,  1.13, 
 03/07/13, 12:00,  18.3,  98,  19.7,  18.5,  17.3,   0.0,  0.71, 
 03/07/13, 13:00,  18.2,  95,  19.8,  18.5,  17.3,   0.0,  0.73, 
 03/07/13, 14:00,  17.7,  99,  19.9,  18.7,  17.4,   0.0,  0.49, 
 03/07/13, 15:00,  17.0,  99,  19.9,  18.6,  17.4,   0.5,  0.29, 
 03/07/13, 16:00,  16.9,  99,  19.8,  18.6,  17.4,   0.0,  0.50, 
 03/07/13, 17:00,  16.1,  99,  19.8,  18.7,  17.4,   1.5,  0.17, 
 03/07/13, 18:00,  16.1,  99,  19.7,  18.7,  17.4,   1.0,  0.15, 
 03/07/13, 19:00,  15.4,  99,  19.5,  18.7,  17.4,   3.5,  0.00, 
 03/07/13, 20:00,  15.2,  99,  19.3,  18.8,  17.4,   4.5,  0.00, 
 03/07/13, 21:00,  15.1,  99,  18.9,  18.8,  17.4,   5.0,  0.00, 
 03/07/13, 22:00,  14.9,  99,  18.7,  18.8,  17.4,   5.0,  0.00, 
 03/07/13, 23:00,  14.8,  99,  18.4,  18.7,  17.5,   4.0,  0.00, 
 03/07/14, 00:00,  14.7,  99,  18.2,  18.7,  17.5,   4.5,  0.00, 
 03/07/14, 01:00,  14.6,  99,  17.8,  18.6,  17.6,   4.0,  0.00, 
 03/07/14, 02:00,  14.5,  99,  17.7,  18.5,  17.6,   3.5,  0.00, 
 03/07/14, 03:00,  14.2,  99,  17.6,  18.4,  17.6,   0.5,  0.00, 
 03/07/14, 04:00,  14.1,  99,  17.5,  18.3,  17.7,   1.5,  0.00, 
 03/07/14, 05:00,  14.0,  99,  17.5,  18.2,  17.7,   0.5,  0.00, 
 03/07/14, 06:00,  13.8,  99,  17.4,  18.1,  17.7,   0.0,  0.03, 
 03/07/14, 07:00,  13.8,  99,  17.3,  18.0,  17.7,   0.0,  0.25, 
 03/07/14, 08:00,  14.4,  99,  17.3,  17.9,  17.7,   0.5,  0.62, 
 03/07/14, 09:00,  14.2,  99,  17.4,  17.9,  17.7,   0.0,  0.41, 
 03/07/14, 10:00,  15.2,  99,  17.6,  17.8,  17.7,   0.0,  0.61, 
 03/07/14, 11:00,  14.9,  99,  17.6,  17.8,  17.6,   0.0,  0.71, 
 03/07/14, 12:00,  14.9,  99,  17.8,  17.8,  17.6,   0.0,  0.52, 
 03/07/14, 13:00,  14.9,  99,  17.9,  17.7,  17.6,   0.0,  0.43, 
 03/07/14, 14:00,  14.5,  99,  18.0,  17.7,  17.6,   0.0,  0.36, 
 03/07/14, 15:00,  14.9,  99,  18.0,  17.8,  17.6,   0.5,  0.33, 
 03/07/14, 16:00,  14.6,  99,  18.0,  17.8,  17.6,   0.0,  0.23, 
 03/07/14, 17:00,  14.6,  99,  18.0,  17.8,  17.5,   0.0,  0.19, 
 03/07/14, 18:00,  14.1,  99,  17.9,  17.8,  17.5,   0.0,  0.11, 
 03/07/14, 19:00,  14.1,  99,  17.8,  17.8,  17.5,   0.0,  0.01, 
 03/07/14, 20:00,  13.9,  99,  17.7,  17.8,  17.5,   0.5,  0.00, 
 03/07/14, 21:00,  13.7,  99,  17.7,  17.7,  17.5,   0.5,  0.00, 
 03/07/14, 22:00,  13.4,  99,  17.5,  17.7,  17.5,   0.0,  0.00, 
 03/07/14, 23:00,  13.2,  99,  17.4,  17.7,  17.5,   0.0,  0.00, 
 03/07/15, 00:00,  13.2,  99,  17.4,  17.7,  17.4,   0.0,  0.00, 
 03/07/15, 01:00,  13.1,  99,  17.2,  17.6,  17.4,   0.0,  0.00, 
 03/07/15, 02:00,  12.7,  99,  17.1,  17.6,  17.4,   0.5,  0.00, 
 03/07/15, 03:00,  12.5,  99,  17.0,  17.5,  17.4,   0.0,  0.00, 
 03/07/15, 04:00,  12.1,  99,  16.9,  17.5,  17.4,   0.0,  0.00, 
 03/07/15, 05:00,  11.8,  99,  16.8,  17.4,  17.4,   0.0,  0.00, 
 03/07/15, 06:00,  11.5,  99,  16.6,  17.4,  17.4,   0.0,  0.03, 
 03/07/15, 07:00,  12.0,  99,  16.6,  17.3,  17.4,   0.0,  0.29, 
 03/07/15, 08:00,  11.9,  99,  16.6,  17.2,  17.3,   0.5,  0.63, 
 03/07/15, 09:00,  13.1,  99,  16.8,  17.2,  17.3,   0.0,  1.84, 
 03/07/15, 10:00,  15.0,  97,  17.2,  17.1,  17.3,   0.0,  1.99, 
 03/07/15, 11:00,  16.0,  91,  17.7,  17.1,  17.3,   0.0,  2.86, 
 03/07/15, 12:00,  17.1,  85,  18.4,  17.2,  17.3,   0.0,  2.83, 
 03/07/15, 13:00,  18.2,  80,  19.1,  17.2,  17.3,   0.0,  2.55, 
 03/07/15, 14:00,  18.6,  80,  19.6,  17.5,  17.2,   0.0,  2.49, 
 03/07/15, 15:00,  19.7,  75,  19.8,  17.5,  17.2,   0.0,  2.86, 
 03/07/15, 16:00,  17.8,  79,  19.9,  17.7,  17.2,   0.0,  2.10, 
 03/07/15, 17:00,  17.8,  83,  20.1,  17.8,  17.2,   0.0,  1.68, 
 03/07/15, 18:00,  16.0,  92,  20.2,  18.0,  17.2,   0.0,  0.91, 
 03/07/15, 19:00,  14.9,  97,  20.1,  18.1,  17.2,   0.0,  0.18, 
 03/07/15, 20:00,  13.4,  99,  19.8,  18.2,  17.2,   0.0,  0.00, 
 03/07/15, 21:00,  13.2,  99,  19.5,  18.4,  17.2,   0.0,  0.00, 
 03/07/15, 22:00,  13.1,  99,  19.1,  18.3,  17.2,   0.0,  0.00, 
 03/07/15, 23:00,  13.1,  99,  18.8,  18.3,  17.2,   0.0,  0.00, 
 03/07/16, 00:00,  13.4,  99,  18.5,  18.3,  17.2,   0.0,  0.00, 
 03/07/16, 01:00,  12.8,  99,  18.4,  18.4,  17.2,   0.0,  0.00, 